Probability
0 0 0 0 0 0 0 0 0 0 0 1 1 4 7 9 10 12 14 15 15 16 18 22 24 24 28 34 38 37 35 29 24 23 22 19 17 17 15 14 15 16 16 15
0 0 0 0 0 0 0 0 0 0 0 1 1 3 6 9 11 13 14 15 16 18 20 24 26 26 29 35 38 37 35 32 29 26 22 19 18 16 15 15 17 17 16 16
0 0 0 0 0 0 0 0 0 0 0 0 0 2 6 10 13 14 14 14 16 18 23 28 29 29 30 35 37 38 37 34 32 28 23 20 19 18 16 18 20 20 18 16
0 0 0 0 0 0 0 0 0 0 0 0 0 1 5 10 14 14 13 12 14 19 24 29 31 31 32 35 38 41 41 37 33 28 23 20 20 19 19 20 23 22 20 19
0 0 0 0 0 0 0 0 0 0 0 0 0 0 3 8 11 12 11 11 14 19 24 29 32 33 34 36 41 46 47 43 38 32 27 24 22 20 19 21 22 22 23 24
0 0 0 0 0 0 0 0 0 0 0 0 0 0 2 5 6 7 9 11 16 20 22 26 31 35 36 39 43 47 49 47 42 38 33 29 25 22 21 21 21 22 24 25
0 0 0 0 0 0 0 0 0 0 0 0 0 0 1 2 3 5 9 13 17 20 21 24 29 34 37 39 41 43 46 46 42 38 36 33 29 26 25 23 21 20 21 21
0 0 0 0 0 0 0 0 0 0 0 0 0 0 1 2 2 4 9 12 15 17 19 23 28 32 35 37 38 39 41 43 39 36 34 32 30 28 27 25 22 21 19 18
0 0 0 0 0 0 0 0 0 0 0 0 0 1 1 1 1 4 7 9 11 14 18 23 28 32 34 34 35 37 41 42 39 34 32 32 29 26 24 23 23 23 21 19
0 0 0 0 0 0 0 0 0 0 0 0 0 1 2 2 1 3 8 11 12 14 18 23 28 32 34 33 32 35 42 45 40 34 31 30 27 23 21 21 22 24 24 23
0 0 0 0 0 0 0 0 0 0 0 0 0 1 3 4 3 5 11 16 18 15 16 22 27 30 32 33 32 35 42 45 40 35 31 27 25 24 23 23 24 25 26 26
0 0 0 0 0 0 0 0 0 0 0 0 0 1 4 6 6 9 16 22 23 21 20 24 28 30 31 33 35 36 39 41 39 35 30 26 25 27 28 28 28 29 28 27
0 0 0 0 0 0 0 0 0 0 0 0 0 2 6 8 9 12 19 25 28 29 30 32 34 34 33 35 38 38 37 36 35 33 29 28 28 31 32 32 31 31 31 30
0 0 0 0 0 0 0 0 0 0 0 0 2 4 8 10 11 15 20 25 30 35 40 42 43 43 42 42 43 42 38 35 32 30 29 30 31 33 34 33 32 33 33 33
0 0 0 0 0 0 0 0 0 0 0 2 4 7 11 14 18 20 22 25 31 38 42 46 49 53 53 52 49 46 43 38 34 31 30 30 31 32 33 34 35 35 34 34
0 0 0 0 0 0 0 0 0 0 1 3 7 11 15 20 25 26 25 28 34 38 39 42 49 54 57 57 54 50 46 44 41 38 36 32 30 30 32 34 37 39 38 36
1 1 1 0 0 0 0 0 0 1 2 6 12 16 18 23 27 28 28 32 37 38 36 37 43 50 53 54 54 51 49 48 47 46 42 37 33 32 33 35 38 42 42 40
0 1 2 1 0 0 0 0 1 3 6 12 18 21 21 23 25 27 29 34 39 39 36 35 39 45 47 48 50 51 49 48 47 47 45 42 40 38 38 39 42 45 44 43
0 1 3 2 0 0 0 0 3 6 10 15 21 22 21 20 23 25 27 31 37 40 40 38 40 42 43 44 46 48 47 43 41 40 41 42 44 45 43 43 45 45 43 41
0 1 3 2 1 0 1 3 5 9 14 17 19 19 18 18 22 26 28 32 38 43 44 44 45 45 45 45 45 46 45 41 37 35 36 38 42 44 42 42 45 43 38 35
0 1 2 3 1 1 3 6 9 14 20 21 19 17 17 20 23 27 31 35 39 42 44 46 49 50 49 47 45 46 47 44 39 36 35 36 38 39 38 40 45 44 37 33
0 1 2 3 2 3 4 6 12 19 22 21 19 17 17 18 22 28 32 34 35 37 39 43 48 51 50 47 46 47 49 46 41 38 38 38 38 37 36 39 43 44 42 39
0 1 2 2 3 4 4 5 11 16 17 16 16 15 14 15 19 27 31 31 32 34 36 39 43 46 48 47 47 47 46 43 40 39 39 39 38 37 38 38 38 41 42 39
0 1 2 3 4 4 4 5 8 10 10 11 13 13 13 15 21 29 33 35 36 37 38 38 40 42 43 43 43 41 40 39 37 35 34 33 32 34 36 35 33 35 36 33
1 2 4 6 6 7 6 7 8 8 8 11 14 15 16 20 27 33 36 38 41 41 40 38 36 36 36 37 35 33 35 36 32 29 27 25 24 27 30 29 26 26 27 26
3 4 6 8 10 11 10 9 8 8 9 12 15 16 18 23 31 36 36 38 42 42 39 35 31 30 32 32 29 28 32 34 30 26 23 20 19 24 27 25 21 18 19 19
Wind_Speed
10 10 9 9 9 8 7 6 5 4 3 2 2 4 8 9 9 9 9 11 11 11 12 11 10 11 10 9 7 6 5 4 3 2 1 1 1 1 1 1 2 1 1 1
11 12 12 12 9 8 7 8 8 5 1 2 2 3 6 9 9 9 10 10 11 11 12 11 10 10 11 10 8 6 5 4 3 3 2 2 2 1 1 1 2 2 1 1
15 10 9 10 10 8 9 9 7 7 4 5 5 6 6 7 8 7 8 10 11 12 13 12 11 11 11 10 9 7 6 4 3 3 2 1 1 1 1 1 1 1 1 0
13 11 9 10 9 9 9 9 9 8 7 7 7 5 6 8 8 9 8 9 11 11 13 13 12 11 10 10 9 7 6 5 4 3 2 2 2 1 1 1 1 1 1 1
12 11 11 11 10 9 9 9 9 9 9 10 9 6 4 9 10 10 10 10 10 10 11 12 12 11 10 10 9 8 7 5 4 3 3 2 2 1 0 1 1 1 1 1
14 11 11 10 9 10 10 10 10 10 9 11 9 7 4 5 7 9 10 9 9 9 9 9 11 10 9 9 8 8 7 6 5 4 4 3 2 1 1 1 1 1 1 1
15 14 12 10 11 11 10 9 7 7 7 8 9 7 2 4 5 6 9 10 10 10 9 9 9 10 9 8 8 7 8 7 6 5 4 3 3 2 2 2 1 1 1 1
14 13 13 12 12 11 10 10 9 9 8 7 6 5 4 7 7 7 8 9 10 10 10 10 9 9 9 8 8 7 8 7 7 5 4 3 2 2 2 2 1 1 1 1
11 10 10 12 13 12 12 11 12 11 13 11 6 4 5 6 8 8 9 9 9 9 8 9 9 9 8 8 8 8 7 6 6 6 5 3 3 2 2 1 2 1 1 1
13 12 11 10 11 14 14 11 8 8 8 10 9 6 3 6 7 7 8 9 8 8 8 8 8 8 7 7 7 7 7 6 5 5 5 4 4 3 2 2 2 1 1 1
13 13 13 12 13 14 13 13 11 8 8 9 9 5 2 6 7 6 7 7 6 8 8 8 8 7 7 7 7 7 7 6 5 5 4 3 3 3 3 2 2 2 1 1
10 11 12 13 12 13 12 13 12 9 8 8 9 6 1 3 6 6 6 6 6 5 7 7 7 7 6 6 6 6 6 6 6 5 4 3 3 3 4 3 3 2 2 2
5 9 10 12 12 11 12 12 13 12 10 9 10 5 4 3 4 6 6 6 4 5 6 6 6 5 5 5 5 5 5 5 6 6 5 4 4 4 4 3 2 2 2 2
6 10 12 12 10 9 11 12 13 13 11 10 8 4 3 3 4 5 6 5 4 4 5 5 4 4 4 4 4 4 5 5 5 5 4 3 3 2 2 2 2 3 3 3
8 12 13 14 15 15 14 13 13 13 12 13 7 5 1 2 4 4 5 4 4 5 5 4 4 4 4 4 4 4 4 4 4 4 4 3 3 2 2 2 2 2 3 3
8 10 11 14 16 16 16 14 13 13 12 11 8 5 2 3 4 4 3 3 4 4 4 4 4 4 3 3 3 3 3 3 3 3 3 3 3 2 2 2 2 2 2 2
7 8 9 12 14 15 15 13 12 11 10 9 6 2 2 3 3 2 2 2 3 3 3 3 3 4 4 3 3 3 2 2 2 2 2 3 3 3 3 3 2 2 3 3
9 8 7 11 12 15 10 9 9 8 5 4 2 2 4 3 2 4 3 2 3 2 2 2 2 3 3 3 3 2 2 2 2 2 2 2 2 3 3 2 2 2 2 3
9 7 8 10 13 14 11 7 7 6 2 5 4 4 3 2 3 5 5 4 3 2 2 2 1 1 2 3 3 3 2 2 3 2 2 2 2 2 2 2 2 2 2 3
9 6 8 10 12 12 7 6 6 5 2 5 4 4 4 2 1 2 4 4 3 3 2 2 1 2 2 3 2 2 2 2 2 2 2 2 2 2 2 2 3 3 3 3
8 8 11 11 12 9 6 7 6 5 2 6 5 5 5 5 3 2 3 4 4 3 2 2 2 2 2 2 2 2 1 1 1 1 1 2 2 3 3 3 3 3 4 4
7 7 8 8 11 5 7 6 5 4 5 6 6 6 5 4 3 2 3 4 4 3 3 2 2 2 2 2 2 1 0 0 0 0 1 2 3 4 3 3 4 4 5 5
6 5 4 4 3 1 3 3 4 3 4 5 5 6 4 3 2 2 2 2 2 2 2 2 2 2 1 2 1 0 1 1 1 1 2 2 3 3 3 4 4 4 4 5
4 4 5 4 2 3 3 3 3 4 5 5 4 5 4 2 2 1 1 1 1 0 1 1 1 1 1 1 1 1 1 1 0 1 2 2 3 4 3 3 4 4 4 4
7 5 5 5 5 5 4 4 4 5 5 4 4 4 4 3 2 1 1 0 1 1 0 0 0 0 0 1 1 1 1 1 1 2 3 3 4 3 3 3 3 3 2 2
7 6 5 5 4 5 5 5 5 5 5 5 4 4 4 3 2 2 1 1 0 1 1 1 1 1 1 1 0 0 0 0 2 3 3 3 4 3 3 3 2 2 2 3
Wind_Direction
231 240 253 254 243 247 274 286 274 247 173 210 190 159 160 165 161 159 164 165 165 165 157 156 159 152 147 143 143 149 149 145 152 152 184 186 187 203 204 184 137 146 231 240
238 236 246 265 271 272 271 267 266 273 199 227 246 209 172 168 167 161 169 171 167 167 159 160 161 159 156 152 152 154 155 158 171 172 188 193 192 208 199 145 131 163 223 240
238 242 242 257 270 278 283 280 281 284 270 242 241 241 193 169 147 153 174 167 170 175 168 163 166 167 164 160 162 164 162 166 177 182 187 194 173 202 157 147 146 179 194 209
242 241 252 257 261 271 274 287 294 290 279 274 253 250 193 173 166 163 174 176 176 174 168 165 168 172 171 165 163 157 158 162 170 180 186 191 186 189 189 175 148 158 156 202
247 242 246 255 261 269 277 298 301 294 286 275 260 260 202 170 179 173 176 178 175 168 167 165 169 171 171 166 163 160 159 163 167 182 193 199 208 209 198 162 158 173 172 212
258 253 249 253 258 265 278 283 281 273 268 265 260 256 218 184 184 178 174 164 160 160 152 159 162 158 162 161 159 158 160 168 172 181 186 197 213 233 262 231 200 203 193 186
242 244 244 246 254 249 254 267 272 265 249 249 247 249 191 164 165 172 162 155 156 156 154 158 163 159 161 162 163 163 163 174 179 183 188 193 210 219 244 261 228 228 244 184
238 234 229 231 241 254 251 253 260 273 278 273 247 238 170 159 150 144 140 141 149 156 160 161 164 160 162 166 167 167 170 178 181 185 184 189 205 223 230 238 262 261 286 320
260 254 235 229 237 244 248 250 261 272 276 280 267 243 173 162 144 142 139 140 149 154 150 155 160 160 162 167 169 168 164 169 176 180 177 183 193 217 257 268 240 253 267 283
263 273 264 243 233 237 245 257 266 265 277 283 281 272 204 155 145 146 150 148 145 146 149 151 153 156 162 167 168 167 163 163 167 181 189 187 187 200 224 247 258 274 286 302
253 265 265 253 236 237 234 238 249 270 278 276 281 289 153 153 152 152 141 134 139 146 151 148 151 154 161 165 167 168 164 162 172 180 171 188 189 196 209 221 237 251 261 260
242 255 262 260 254 238 243 248 249 250 255 269 278 280 174 145 140 131 118 114 116 132 133 140 145 149 155 159 162 159 165 176 176 176 174 194 197 195 206 217 215 221 244 254
277 262 257 256 255 235 239 244 251 258 257 255 259 242 153 96 94 109 102 105 111 122 123 129 135 143 152 151 155 164 174 179 180 180 184 193 198 202 206 218 224 216 227 242
280 265 265 266 276 281 259 251 252 257 260 260 264 257 197 145 106 93 99 116 134 123 113 122 130 135 139 143 154 161 174 176 179 180 183 191 196 201 210 206 221 226 227 226
259 259 263 271 274 276 276 273 267 259 265 272 273 265 239 136 121 115 118 129 145 133 126 125 130 137 140 145 153 168 172 174 175 177 186 190 187 186 203 205 209 225 241 239
252 267 270 269 268 271 270 263 268 268 264 268 265 274 69 82 97 114 129 135 137 133 137 134 129 134 144 151 160 164 165 161 161 175 189 181 183 194 210 209 212 218 235 247
259 268 271 268 270 274 265 267 264 266 266 274 278 324 69 67 68 87 113 125 118 132 134 135 143 150 150 145 140 149 140 138 144 164 174 186 192 199 215 224 214 219 232 237
250 261 262 265 267 262 269 290 283 272 286 324 360 67 63 58 66 63 56 84 87 84 113 120 143 151 149 148 143 128 140 150 156 167 174 192 204 210 212 216 235 240 242 247
250 246 258 264 262 260 265 286 299 288 319 26 23 22 45 66 71 62 46 54 67 65 64 90 112 140 144 143 143 149 155 154 173 184 191 205 216 218 226 234 239 245 242 251
240 233 249 259 266 268 287 317 326 297 248 28 25 357 351 10 352 41 30 35 44 52 60 75 68 85 116 129 138 154 175 177 195 198 210 213 218 214 235 247 252 253 249 247
226 232 240 252 258 264 334 327 302 268 6 18 15 3 359 2 5 25 32 35 30 30 53 74 82 75 89 115 129 146 157 212 223 205 238 220 229 228 226 232 246 254 252 251
258 254 247 255 260 264 3 343 356 20 24 12 6 6 21 21 28 35 39 40 26 23 42 55 73 79 87 110 112 109 122 14 15 286 268 255 242 243 228 224 236 244 247 246
246 266 281 275 280 9 14 22 20 16 14 11 6 345 353 355 16 43 62 52 50 20 35 39 65 84 86 113 128 141 76 62 333 284 276 278 275 259 231 229 237 243 246 248
259 261 261 270 270 310 355 17 9 6 360 344 338 323 336 350 348 358 63 58 86 60 23 8 45 67 83 106 118 140 136 125 259 286 291 277 270 265 249 245 241 244 253 256
300 297 286 278 290 297 323 348 352 352 338 334 334 333 347 350 348 33 25 352 178 150 112 36 56 65 152 135 131 139 124 166 252 268 271 270 264 268 254 252 260 256 253 257
288 291 286 290 310 304 313 334 334 329 322 331 338 344 349 352 359 23 13 0 130 152 171 173 214 226 219 168 154 89 85 264 271 271 271 272 270 261 248 248 261 283 248 237